Regional Weather Roundup
Issued by NWS Sterling, VA

Home | Current Version | Previous Version | Graphics & Text | Print | Product List | Glossary On
Versions: 1 2 3 4 5 6 7 8 9 10 11 12 13 14 15 16 17 18 19 20 21 22 23 24 25 26 27 28 29 30 31 32 33 34 35 36 37 38 39 40 41 42 43 44 45 46 47 48 49
000
ASUS41 KLWX 232310
RWRLWX

REGIONAL WEATHER ROUNDUP
NATIONAL WEATHER SERVICE BALTIMORE MD/WASHINGTON DC
600 PM EST TUE DEC 23 2014

Note: "FAIR" indicates few or no clouds below 12,000 feet
with no significant weather and/or obstructions to visibility.
 TC=TEMPERATURE CELSIUS

 * =Non NWS site. Station does not report precipitation (e.g. rain,
    snow, etc.), thunder, or fog.

DCZ001-MDZ009-015-VAZ040>042-051-053>054-240000-
WASHINGTON METRO

CITY           SKY/WX    TMP DP  RH WIND       PRES   REMARKS
WASHINGTON NAT DRIZZLE   47  44  90 CALM      30.04S FOG
DULLES         DRZL/FOG  41  41 100 CALM      30.04R VSB 1/8
ANDREWS AFB    CLOUDY    45  45 100 CALM      30.02S FOG
FT BELVOIR     CLOUDY    45  43  93 VRB1      30.06R FOG
QUANTICO       CLOUDY    43  41  93 NW3       30.06R FOG
COLLEGE PARK*  CLOUDY    46  46 100 CALM      30.03R
LEESBURG*      FOG       43  43 100 CALM      30.04R VSB 3/4
MANASSAS*      FOG       43  43 100 CALM      30.05  VSB 1
GAITHERSBURG*  CLOUDY    45  43  93 CALM      30.06R VSB 1/2

$$

MDZ006>007-011-014-240000-
BALTIMORE METRO

CITY           SKY/WX    TMP DP  RH WIND       PRES   REMARKS
BWI AIRPORT    DRZL/FOG  48  47  96 SE3       30.01F VSB 1/8
MD SCIENCE CTR   N/A     46  46 100 MISG      30.03F
MARTIN STATE   FOG       46  46 100 CALM      30.04F VSB 1/2
ANNAPOLIS      FOG       42  41  96 E6        30.03F VSB 1/4
FORT MEADE*    CLOUDY    46  45  93 CALM      30.04S VSB 1/2

$$

MDZ012-015-019>023-240000-
MARYLAND EASTERN SHORE

CITY           SKY/WX    TMP DP  RH WIND       PRES   REMARKS
OCEAN CITY     FOG       49  48  97 E3        30.04F VSB 3/4
SALISBURY      FOG       52  50  93 SW3       30.04R VSB 3/4
BAY BRIDGE AP*   N/A     45  45 100 SE3       30.04S FOG
CAMBRIDGE*     CLOUDY    48  46  93 CALM      30.04R
EASTON*        FOG       48  48 100 CALM      30.08S VSB 1/4

$$

MDZ017>025-240000-
SOUTHERN MARYLAND

CITY           SKY/WX    TMP DP  RH WIND       PRES   REMARKS
PATUXENT RIVER CLOUDY    46  44  93 CALM      30.03S
ST INIGOES     CLOUDY    46  42  86 CALM      30.03S
LEONARDTOWN*   CLOUDY    45  43  93 CALM      30.06R

$$

MDZ003>005-240000-
NORTH CENTRAL MARYLAND

CITY           SKY/WX    TMP DP  RH WIND       PRES   REMARKS
FREDERICK*     FOG       46  43  87 CALM      30.06R VSB 1/2
HAGERSTOWN APT CLOUDY    39  38  96 CALM      30.02S FOG
WESTMINSTER*   FOG       43  43 100 NW5       30.02R VSB 3/4

$$

MDZ501>502-240000-
WESTERN MARYLAND

CITY           SKY/WX    TMP DP  RH WIND       PRES   REMARKS
OAKLAND*       FOG       34 N/A N/A SE15      29.92S VSB 1/4 WCI  24
CUMBERLAND*    CLOUDY    37  37 100 CALM      30.06S VSB 1/4

$$

VAZ025>031-240000-
SHENANDOAH VALLEY

CITY           SKY/WX    TMP DP  RH WIND       PRES   REMARKS
WINCHESTER*    FOG       41  36  81 CALM      30.02F VSB 1
FRONT ROYAL*   CLOUDY    37  37 100 CALM      30.01F
LURAY*         CLOUDY    41  41 100 CALM      30.01S
NEW MARKET*    CLOUDY    39  38  98 CALM      30.01R
STAUNTON*      CLOUDY    43  40  89 N3        30.01F
WAYNESBORO*    CLOUDY    42  41  98 CALM      29.99S

$$

WVZ021-048>050-054>055-240000-
EASTERN WEST VIRGINIA PANHANDLE

CITY           SKY/WX    TMP DP  RH WIND       PRES   REMARKS
MARTINSBURG    FOG       39  36  89 CALM      30.03F VSB 3/4
PETERSBURG*    CLOUDY    37  37 100 CALM      30.04R FOG

$$

VAZ036>039-050-240000-
CENTRAL FOOTHILLS

CITY           SKY/WX    TMP DP  RH WIND       PRES   REMARKS
CHARLOTTESVILL FOG       43  42  97 CALM      30.02S VSB 1
CULPEPER*      CLOUDY    45  45 100 CALM      30.04S FOG
ORANGE*        FOG       45  43  93 CALM      30.04S VSB 1
GORDONSVILLE*  CLOUDY    42  42  99 CALM      30.02S FOG
WARRENTON*     CLOUDY    44  44 100 CALM      30.03S FOG

$$

VAZ055>057-240000-
NORTH AND CENTRAL PIEDMONT

CITY           SKY/WX    TMP DP  RH WIND       PRES   REMARKS
FREDERICKSBRG* CLOUDY    46  46 100 CALM      30.04S
STAFFORD*      CLOUDY    44  32  63 CALM      30.08S HAZE

$$

NCZ024-NYZ072-PAZ021-071-VAZ022-071-240000-
OTHER REGIONAL OBSERVATIONS

CITY           SKY/WX    TMP DP  RH WIND       PRES   REMARKS
NEW YORK CITY  CLOUDY    46  44  93 NE5       30.11S FOG
PHILADELPHIA   CLOUDY    49  47  93 E7        30.07S
PITTSBURGH     CLOUDY    52  48  86 CALM      29.86F
ROANOKE        CLOUDY    42  41  96 SE7       30.01R
RICHMOND       CLOUDY    45  42  89 S3        30.05R FOG
RALEIGH        LGT RAIN  44  42  93 NE6       30.01F VSB 1/4

$$

ANZ530>537-240000-
MARINE OBSERVATIONS

STATION/POSITION TIME  TEMP    WIND        PRES
                       AIR SEA DIR/SP/G
                 (UTC) (F)     (DEG/KT/KT) (MB)
THOMAS PT LIGHT  2300   46 41  130/  7/  7 1017.8F
BALT KEY BRIDGE  2300   44     130/  3/  4 1016.7F
COVE POINT       2300   44     160/  4/  4 1017.1S
LEWISETTA        2300   42 41  250/  1/  2 1017.0R
SOLOMONS ISLAND  2300      42                N/A
PINEY POINT      2300           80/  1/  2   N/A

$$



USA.gov is the U.S. government's official web portal to all federal, state and local government web resources and services.